Content
SEND FEEDBACK

Daily
Averages
Monthly
Summary
United States of America

SOUTH LAKE TAHOE - AIRPORT, CALIFORNIA


Home > North America > United States > California
Elevation: 6250 feet     Latitude: 38 54N     Longitude: 120 00W

WEATHER
 
SELECT A DAY
Number of Records: 177,028;   Date Range: 1/1/95 - 10/22/14
 
SHARE

PRINT THIS DATA

[ ← Previous Day ]
WEATHER ALMANAC - SEPTEMBER 28, 2013
[ Next Day → ]
[ °C ]   °F
Weather ElementAverageHighLow
Temperature50.9 °F66.9 °F (3:53 pm)30.9 °F (3:53 am)
Dewpoint24.9 °F28 °F (8:53 am)19 °F (11:53 pm)
Humidity40.7 %72 % (6:53 am)23 % (3:53 pm)
Barometer30.13 in30.19 in (7:53 am)30.06 in (11:53 pm)
Wind Speed7.2 mph16.1 mph (3:53 pm)
Wind Gust21.9 mph (1:53 pm)
Weather ElementAverage
Visibility10 mi
Wind DirectionSSE (142.2 °)

Weather ElementTotal
Precipitation---
Heating Degree Days16.1 (Base 65)
Averaged from 23 records on September 28, 2013
WEATHER CONDITIONS BREAKOUT
WIND DIRECTION BREAKOUT
WEATHER BY HOUR - SEPTEMBER 28, 2013
[ °C ]   °F
Local TimeTemperatureDewpointHumidityBarometerVisibilityWind DirectionWind SpeedGust SpeedPrecipitationEventsConditions
1:53 AM32.0 °F21.9 °F66 %30.14 in10.0 miCalmClear
2:53 AM32.0 °F21.9 °F66 %30.13 in10.0 miSouth (190°)3.5 mphClear
3:53 AM30.9 °F21.9 °F69 %30.13 in10.0 miSouth (180°)3.5 mphClear
4:53 AM32.0 °F21.9 °F66 %30.12 in10.0 miSouth (190°)3.5 mphClear
5:53 AM32.0 °F23.0 °F69 %30.14 in10.0 miCalmClear
6:53 AM30.9 °F23.0 °F72 %30.17 in10.0 miSouth (190°)3.5 mphClear
7:53 AM34.0 °F24.1 °F67 %30.19 in10.0 miCalmClear
8:53 AM43.0 °F28.0 °F56 %30.18 in10.0 miCalmClear
9:53 AM55.9 °F25.0 °F30 %30.15 in10.0 miSSW (200°)8.1 mphClear
10:53 AM61.0 °F25.0 °F25 %30.14 in10.0 miSouth (170°)9.2 mphClear
11:53 AM64.9 °F27.0 °F24 %30.13 in10.0 miVariable4.6 mphClear
12:53 PM66.0 °F28.0 °F24 %30.13 in10.0 miSSW (200°)13.8 mph20.7 mphClear
1:53 PM66.0 °F28.0 °F24 %30.11 in10.0 miSouth (180°)11.5 mph21.9 mphClear
2:53 PM66.0 °F28.0 °F24 %30.11 in10.0 miSSW (210°)10.4 mph17.3 mphClear
3:53 PM66.9 °F28.0 °F23 %30.10 in10.0 miSouth (190°)16.1 mph20.7 mphClear
4:53 PM64.9 °F28.0 °F25 %30.10 in10.0 miSSW (200°)13.8 mph20.7 mphClear
5:53 PM62.1 °F28.0 °F28 %30.10 in10.0 miSSW (210°)9.2 mphClear
6:53 PM57.0 °F28.0 °F33 %30.13 in10.0 miSW (220°)3.5 mphClear
7:53 PM55.9 °F27.0 °F33 %30.13 in10.0 miSouth (180°)15.0 mph21.9 mphClear
8:53 PM57.0 °F25.0 °F29 %30.12 in10.0 miSouth (180°)12.7 mphClear
9:53 PM55.0 °F23.0 °F29 %30.09 in10.0 miVariable5.8 mphClear
10:53 PM54.0 °F19.9 °F26 %30.09 in10.0 miSouth (190°)8.1 mphClear
11:53 PM52.0 °F19.0 °F27 %30.06 in10.0 miSouth (190°)9.2 mphClear
Hourly data recorded from KTVL, located miles away from South Lake Tahoe - Airport, California







STORIES FROM OUR PARTNERS